Time,TemperatureF,DewpointF,PressureIn,WindDirection,WindDirectionDegrees,WindSpeedMPH,WindSpeedGustMPH,Humidity,HourlyPrecipIn,Conditions,Clouds,dailyrainin,SoftwareType,DateUTC
2013-01-31 00:00:00,53.1,52.5,28.67,SW,225,2.5,2.5,98,0.00,,,0.00,VWS V14.01,2013-01-31 05:00:00,
2013-01-31 00:02:00,53.1,52.5,28.67,SE,135,2.0,2.0,98,0.00,,,0.00,VWS V14.01,2013-01-31 05:02:00,
2013-01-31 00:03:00,53.1,52.5,28.67,SE,135,3.1,3.1,98,0.00,,,0.00,VWS V14.01,2013-01-31 05:03:00,
2013-01-31 00:08:00,53.1,52.5,28.67,South,180,3.8,3.8,98,0.00,,,0.00,VWS V14.01,2013-01-31 05:08:00,
2013-01-31 00:13:00,53.2,52.7,28.67,SSE,158,4.9,4.9,98,0.00,,,0.00,VWS V14.01,2013-01-31 05:13:00,
2013-01-31 00:18:00,53.2,52.7,28.67,South,180,4.9,4.9,98,0.00,,,0.00,VWS V14.01,2013-01-31 05:18:00,
2013-01-31 00:23:00,53.2,52.7,28.67,SE,135,3.8,3.8,98,0.00,,,0.00,VWS V14.01,2013-01-31 05:23:00,
2013-01-31 00:28:00,53.4,52.9,28.67,South,180,4.3,4.3,98,0.00,,,0.00,VWS V14.01,2013-01-31 05:28:00,
2013-01-31 00:33:00,53.4,52.9,28.64,SSW,202,4.9,4.9,98,0.00,,,0.00,VWS V14.01,2013-01-31 05:33:00,
2013-01-31 00:38:00,53.4,52.9,28.64,South,180,5.6,5.6,98,0.00,,,0.00,VWS V14.01,2013-01-31 05:38:00,
2013-01-31 00:44:00,53.4,52.9,28.64,SSW,202,4.3,4.3,98,0.00,,,0.00,VWS V14.01,2013-01-31 05:44:00,
2013-01-31 00:49:00,53.4,52.9,28.61,SW,225,4.3,4.3,98,0.00,,,0.00,VWS V14.01,2013-01-31 05:49:00,
2013-01-31 00:54:00,53.6,53.0,28.61,SSW,202,5.4,5.4,98,0.00,,,0.00,VWS V14.01,2013-01-31 05:54:00,
2013-01-31 00:59:00,53.6,53.0,28.61,SW,225,4.0,4.0,98,0.00,,,0.00,VWS V14.01,2013-01-31 05:59:00,
2013-01-31 01:04:00,53.8,53.2,28.64,SSW,202,5.4,5.4,98,0.00,,,0.00,VWS V14.01,2013-01-31 06:04:00,
2013-01-31 01:09:00,53.8,53.2,28.64,SW,225,6.0,6.0,98,0.00,,,0.00,VWS V14.01,2013-01-31 06:09:00,
2013-01-31 01:14:00,54.0,53.4,28.64,WSW,248,4.0,4.0,98,0.00,,,0.00,VWS V14.01,2013-01-31 06:14:00,
2013-01-31 01:19:00,54.0,53.4,28.64,WNW,292,6.3,6.3,98,0.00,,,0.00,VWS V14.01,2013-01-31 06:19:00,
2013-01-31 01:24:00,53.8,53.2,28.64,WNW,292,6.0,6.0,98,0.00,,,0.00,VWS V14.01,2013-01-31 06:24:00,
2013-01-31 01:29:00,53.8,53.2,28.64,West,270,8.1,8.1,98,0.00,,,0.00,VWS V14.01,2013-01-31 06:29:00,
2013-01-31 01:34:00,53.8,53.2,28.64,South,180,3.6,3.6,98,0.00,,,0.00,VWS V14.01,2013-01-31 06:34:00,
2013-01-31 01:39:00,53.6,53.0,28.64,WNW,292,4.7,4.7,98,0.00,,,0.00,VWS V14.01,2013-01-31 06:39:00,
2013-01-31 01:44:00,53.6,53.0,28.64,SW,225,3.8,3.8,98,0.00,,,0.00,VWS V14.01,2013-01-31 06:44:00,
2013-01-31 01:49:00,53.6,53.0,28.61,SW,225,3.4,3.4,98,0.00,,,0.00,VWS V14.01,2013-01-31 06:49:00,
2013-01-31 01:54:00,53.4,52.9,28.61,SSW,202,5.4,5.4,98,0.00,,,0.00,VWS V14.01,2013-01-31 06:54:00,
2013-01-31 01:59:00,53.4,52.9,28.61,SSW,202,5.6,5.6,98,0.00,,,0.00,VWS V14.01,2013-01-31 06:59:00,
2013-01-31 02:04:00,53.4,52.9,28.61,West,270,4.3,4.3,98,0.00,,,0.00,VWS V14.01,2013-01-31 07:04:00,
2013-01-31 02:09:00,53.4,52.9,28.61,WSW,248,3.6,3.6,98,0.00,,,0.00,VWS V14.01,2013-01-31 07:09:00,
2013-01-31 02:14:00,53.4,52.9,28.61,WSW,248,5.4,5.4,98,0.00,,,0.00,VWS V14.01,2013-01-31 07:14:00,
2013-01-31 02:19:00,53.4,52.9,28.61,WSW,248,4.9,4.9,98,0.00,,,0.00,VWS V14.01,2013-01-31 07:19:00,
2013-01-31 02:24:00,53.2,52.7,28.61,WSW,248,4.3,4.3,98,0.00,,,0.00,VWS V14.01,2013-01-31 07:24:00,
2013-01-31 02:29:00,53.2,52.7,28.61,WSW,248,7.4,7.4,98,0.00,,,0.00,VWS V14.01,2013-01-31 07:29:00,
2013-01-31 02:34:00,53.2,52.7,28.61,WSW,248,4.3,4.3,98,0.00,,,0.00,VWS V14.01,2013-01-31 07:34:00,
2013-01-31 02:39:00,53.2,52.7,28.61,WSW,248,3.8,3.8,98,0.00,,,0.00,VWS V14.01,2013-01-31 07:39:00,
2013-01-31 02:44:00,53.1,52.5,28.61,WSW,248,3.8,3.8,98,0.00,,,0.00,VWS V14.01,2013-01-31 07:44:00,
2013-01-31 02:49:00,53.1,52.5,28.58,WSW,248,4.9,4.9,98,0.00,,,0.00,VWS V14.01,2013-01-31 07:49:00,
2013-01-31 02:54:00,53.1,52.5,28.58,WNW,292,6.0,6.0,98,0.00,,,0.00,VWS V14.01,2013-01-31 07:54:00,
2013-01-31 02:59:00,53.1,52.5,28.58,WNW,292,5.4,5.4,98,0.00,,,0.00,VWS V14.01,2013-01-31 07:59:00,
2013-01-31 03:04:00,52.7,51.6,28.61,WNW,292,19.9,19.9,96,0.00,,,0.00,VWS V14.01,2013-01-31 08:04:00,
2013-01-31 03:10:00,52.0,50.0,28.61,West,270,19.2,19.2,93,0.00,,,0.00,VWS V14.01,2013-01-31 08:10:00,
2013-01-31 03:15:00,51.6,49.1,28.61,WNW,292,10.7,10.7,91,0.00,,,0.00,VWS V14.01,2013-01-31 08:15:00,
2013-01-31 03:20:00,51.4,48.6,28.64,WNW,292,18.6,18.6,90,0.00,,,0.00,VWS V14.01,2013-01-31 08:20:00,
2013-01-31 03:25:00,50.9,47.5,28.64,West,270,16.1,16.1,88,0.00,,,0.00,VWS V14.01,2013-01-31 08:25:00,
2013-01-31 03:30:00,50.7,46.7,28.64,WSW,248,9.6,9.6,86,0.00,,,0.00,VWS V14.01,2013-01-31 08:30:00,
2013-01-31 03:35:00,50.2,44.6,28.61,West,270,10.3,10.3,81,0.00,,,0.00,VWS V14.01,2013-01-31 08:35:00,
2013-01-31 03:40:00,50.0,44.4,28.61,WSW,248,10.5,10.5,81,0.00,,,0.00,VWS V14.01,2013-01-31 08:40:00,
2013-01-31 03:45:00,49.6,44.1,28.61,West,270,10.1,10.1,81,0.00,,,0.00,VWS V14.01,2013-01-31 08:45:00,
2013-01-31 03:50:00,49.5,43.6,28.64,NW,315,10.7,10.7,80,0.00,,,0.00,VWS V14.01,2013-01-31 08:50:00,
2013-01-31 03:55:00,47.8,39.6,28.64,West,270,10.3,10.3,73,0.00,,,0.00,VWS V14.01,2013-01-31 08:55:00,
2013-01-31 04:00:00,46.6,34.7,28.64,NW,315,26.9,26.9,63,0.00,,,0.00,VWS V14.01,2013-01-31 09:00:00,
2013-01-31 04:05:00,45.9,34.0,28.67,NW,315,14.8,14.8,63,0.00,,,0.00,VWS V14.01,2013-01-31 09:05:00,
2013-01-31 04:10:00,45.1,32.9,28.67,West,270,15.7,15.7,62,0.00,,,0.00,VWS V14.01,2013-01-31 09:10:00,
2013-01-31 04:15:00,45.0,34.3,28.67,West,270,12.8,12.8,66,0.00,,,0.00,VWS V14.01,2013-01-31 09:15:00,
2013-01-31 04:20:00,44.6,32.0,28.67,West,270,16.1,16.1,61,0.00,,,0.00,VWS V14.01,2013-01-31 09:20:00,
2013-01-31 04:25:00,44.2,30.4,28.67,West,270,17.7,17.7,58,0.00,,,0.00,VWS V14.01,2013-01-31 09:25:00,
2013-01-31 04:30:00,43.9,30.9,28.67,West,270,12.3,12.3,60,0.00,,,0.00,VWS V14.01,2013-01-31 09:30:00,
2013-01-31 04:35:00,43.7,30.7,28.67,West,270,17.2,17.2,60,0.00,,,0.00,VWS V14.01,2013-01-31 09:35:00,
2013-01-31 04:40:00,43.5,30.6,28.67,WNW,292,12.8,12.8,60,0.00,,,0.00,VWS V14.01,2013-01-31 09:40:00,
2013-01-31 04:45:00,43.3,30.8,28.67,West,270,14.1,14.1,61,0.00,,,0.00,VWS V14.01,2013-01-31 09:45:00,
2013-01-31 04:50:00,43.2,30.2,28.70,WNW,292,19.5,19.5,60,0.00,,,0.00,VWS V14.01,2013-01-31 09:50:00,
2013-01-31 04:55:00,43.0,30.5,28.70,WNW,292,13.2,13.2,61,0.00,,,0.00,VWS V14.01,2013-01-31 09:55:00,
2013-01-31 05:00:00,43.0,30.1,28.70,WNW,292,12.1,12.1,60,0.00,,,0.00,VWS V14.01,2013-01-31 10:00:00,
2013-01-31 05:05:00,42.8,29.9,28.67,WNW,292,12.5,12.5,60,0.00,,,0.00,VWS V14.01,2013-01-31 10:05:00,
2013-01-31 05:10:00,42.8,30.7,28.67,WSW,248,10.3,10.3,62,0.00,,,0.00,VWS V14.01,2013-01-31 10:10:00,
2013-01-31 05:15:00,42.4,30.4,28.67,West,270,15.4,15.4,62,0.00,,,0.00,VWS V14.01,2013-01-31 10:15:00,
2013-01-31 05:20:00,42.3,30.6,28.73,West,270,12.8,12.8,63,0.00,,,0.00,VWS V14.01,2013-01-31 10:20:00,
2013-01-31 05:25:00,42.1,29.6,28.73,West,270,19.5,19.5,61,0.00,,,0.00,VWS V14.01,2013-01-31 10:25:00,
2013-01-31 05:30:00,42.1,29.2,28.73,WSW,248,13.2,13.2,60,0.00,,,0.00,VWS V14.01,2013-01-31 10:30:00,
2013-01-31 05:35:00,41.9,28.6,28.73,WSW,248,8.1,8.1,59,0.00,,,0.00,VWS V14.01,2013-01-31 10:35:00,
2013-01-31 05:40:00,41.5,28.3,28.73,WSW,248,17.2,17.2,59,0.00,,,0.00,VWS V14.01,2013-01-31 10:40:00,
2013-01-31 05:45:00,41.4,28.5,28.73,West,270,10.7,10.7,60,0.00,,,0.00,VWS V14.01,2013-01-31 10:45:00,
2013-01-31 05:50:00,41.0,29.4,28.76,WSW,248,11.0,11.0,63,0.00,,,0.00,VWS V14.01,2013-01-31 10:50:00,
2013-01-31 05:55:00,40.5,27.7,28.76,WSW,248,23.0,23.0,60,0.00,,,0.00,VWS V14.01,2013-01-31 10:55:00,
2013-01-31 06:00:00,40.1,26.1,28.76,WNW,292,17.9,17.9,57,0.00,,,0.00,VWS V14.01,2013-01-31 11:00:00,
2013-01-31 06:05:00,39.9,25.5,28.79,West,270,16.3,16.3,56,0.00,,,0.00,VWS V14.01,2013-01-31 11:05:00,
2013-01-31 06:10:00,39.7,25.8,28.79,West,270,23.0,23.0,57,0.00,,,0.00,VWS V14.01,2013-01-31 11:10:00,
2013-01-31 06:15:00,39.6,24.7,28.79,West,270,19.2,19.2,55,0.00,,,0.00,VWS V14.01,2013-01-31 11:15:00,
2013-01-31 06:20:00,39.6,24.3,28.79,NW,315,12.8,12.8,54,0.00,,,0.00,VWS V14.01,2013-01-31 11:20:00,
2013-01-31 06:25:00,39.4,24.1,28.79,WSW,248,13.2,13.2,54,0.00,,,0.00,VWS V14.01,2013-01-31 11:25:00,
2013-01-31 06:30:00,39.4,23.7,28.79,WNW,292,17.2,17.2,53,0.00,,,0.00,VWS V14.01,2013-01-31 11:30:00,
2013-01-31 06:35:00,39.2,24.0,28.82,West,270,16.1,16.1,54,0.00,,,0.00,VWS V14.01,2013-01-31 11:35:00,
2013-01-31 06:40:00,39.2,24.4,28.82,WSW,248,10.3,10.3,55,0.00,,,0.00,VWS V14.01,2013-01-31 11:40:00,
2013-01-31 06:45:00,39.2,24.4,28.82,WNW,292,13.2,13.2,55,0.00,,,0.00,VWS V14.01,2013-01-31 11:45:00,
2013-01-31 06:50:00,39.0,25.1,28.85,WNW,292,12.8,12.8,57,0.00,,,0.00,VWS V14.01,2013-01-31 11:50:00,
2013-01-31 06:55:00,38.7,24.8,28.85,WNW,292,10.3,10.3,57,0.00,,,0.00,VWS V14.01,2013-01-31 11:55:00,
2013-01-31 07:00:00,38.5,23.7,28.85,NW,315,13.0,13.0,55,0.00,,,0.00,VWS V14.01,2013-01-31 12:00:00,
2013-01-31 07:05:00,38.5,23.7,28.85,WNW,292,9.8,9.8,55,0.00,,,0.00,VWS V14.01,2013-01-31 12:05:00,
2013-01-31 07:10:00,38.3,23.6,28.85,West,270,10.3,10.3,55,0.00,,,0.00,VWS V14.01,2013-01-31 12:10:00,
2013-01-31 07:16:00,38.1,23.0,28.85,WSW,248,6.5,6.5,54,0.00,,,0.00,VWS V14.01,2013-01-31 12:16:00,
2013-01-31 07:21:00,38.1,22.5,28.88,West,270,11.0,11.0,53,0.00,,,0.00,VWS V14.01,2013-01-31 12:21:00,
2013-01-31 07:26:00,38.1,22.5,28.88,West,270,12.1,12.1,53,0.00,,,0.00,VWS V14.01,2013-01-31 12:26:00,
2013-01-31 07:31:00,37.9,21.4,28.88,WNW,292,13.2,13.2,51,0.00,,,0.00,VWS V14.01,2013-01-31 12:31:00,
2013-01-31 07:36:00,37.9,21.0,28.88,NW,315,17.5,17.5,50,0.00,,,0.00,VWS V14.01,2013-01-31 12:36:00,
2013-01-31 07:41:00,37.9,19.5,28.88,West,270,17.5,17.5,47,0.00,,,0.00,VWS V14.01,2013-01-31 12:41:00,
2013-01-31 07:46:00,37.9,19.0,28.88,West,270,22.4,22.4,46,0.00,,,0.00,VWS V14.01,2013-01-31 12:46:00,
2013-01-31 07:51:00,37.9,18.5,28.91,West,270,10.7,10.7,45,0.00,,,0.00,VWS V14.01,2013-01-31 12:51:00,
2013-01-31 07:56:00,37.9,18.0,28.91,WNW,292,10.3,10.3,44,0.00,,,0.00,VWS V14.01,2013-01-31 12:56:00,
2013-01-31 08:01:00,37.9,18.5,28.91,West,270,15.4,15.4,45,0.00,,,0.00,VWS V14.01,2013-01-31 13:01:00,
2013-01-31 08:06:00,37.9,18.5,28.91,West,270,9.8,9.8,45,0.00,,,0.00,VWS V14.01,2013-01-31 13:06:00,
2013-01-31 08:11:00,37.8,17.3,28.91,WNW,292,13.6,13.6,43,0.00,,,0.00,VWS V14.01,2013-01-31 13:11:00,
2013-01-31 08:16:00,37.6,17.1,28.91,WNW,292,14.3,14.3,43,0.00,,,0.00,VWS V14.01,2013-01-31 13:16:00,
2013-01-31 08:21:00,37.4,17.5,28.91,West,270,12.3,12.3,44,0.00,,,0.00,VWS V14.01,2013-01-31 13:21:00,
2013-01-31 08:26:00,37.6,17.1,28.91,NW,315,16.3,16.3,43,0.00,,,0.00,VWS V14.01,2013-01-31 13:26:00,
2013-01-31 08:31:00,37.6,17.1,28.88,WNW,292,13.9,13.9,43,0.00,,,0.00,VWS V14.01,2013-01-31 13:31:00,
2013-01-31 08:36:00,37.6,17.1,28.88,West,270,22.8,22.8,43,0.00,,,0.00,VWS V14.01,2013-01-31 13:36:00,
2013-01-31 08:41:00,37.6,16.6,28.88,WNW,292,14.8,14.8,42,0.00,,,0.00,VWS V14.01,2013-01-31 13:41:00,
2013-01-31 08:46:00,37.6,16.0,28.91,West,270,22.2,22.2,41,0.00,,,0.00,VWS V14.01,2013-01-31 13:46:00,
2013-01-31 08:52:00,37.8,16.8,28.91,SW,225,12.3,12.3,42,0.00,,,0.00,VWS V14.01,2013-01-31 13:52:00,
2013-01-31 08:57:00,37.8,16.2,28.91,West,270,8.1,8.1,41,0.00,,,0.00,VWS V14.01,2013-01-31 13:57:00,
2013-01-31 09:02:00,37.9,16.9,28.91,West,270,12.3,12.3,42,0.00,,,0.00,VWS V14.01,2013-01-31 14:02:00,
2013-01-31 09:07:00,38.1,17.1,28.91,West,270,11.2,11.2,42,0.00,,,0.00,VWS V14.01,2013-01-31 14:07:00,
2013-01-31 09:12:00,38.1,17.1,28.91,WNW,292,17.0,17.0,42,0.00,,,0.00,VWS V14.01,2013-01-31 14:12:00,
2013-01-31 09:17:00,37.9,16.9,28.97,WNW,292,13.2,13.2,42,0.00,,,0.00,VWS V14.01,2013-01-31 14:17:00,
2013-01-31 09:22:00,37.8,16.8,28.97,WNW,292,14.8,14.8,42,0.00,,,0.00,VWS V14.01,2013-01-31 14:22:00,
2013-01-31 09:27:00,37.6,17.1,28.97,West,270,17.2,17.2,43,0.00,,,0.00,VWS V14.01,2013-01-31 14:27:00,
2013-01-31 09:32:00,37.4,19.5,28.97,WSW,248,15.2,15.2,48,0.00,,,0.00,VWS V14.01,2013-01-31 14:32:00,
2013-01-31 09:37:00,37.4,20.5,28.97,West,270,11.0,11.0,50,0.00,,,0.00,VWS V14.01,2013-01-31 14:37:00,
2013-01-31 09:42:00,37.0,20.6,28.97,WSW,248,11.0,11.0,51,0.00,,,0.00,VWS V14.01,2013-01-31 14:42:00,
2013-01-31 09:47:00,37.0,21.1,28.97,WSW,248,13.2,13.2,52,0.00,,,0.00,VWS V14.01,2013-01-31 14:47:00,
2013-01-31 09:52:00,37.0,19.7,28.97,WNW,292,24.4,24.4,49,0.00,,,0.00,VWS V14.01,2013-01-31 14:52:00,
2013-01-31 09:57:00,37.0,19.7,28.97,West,270,16.8,16.8,49,0.00,,,0.00,VWS V14.01,2013-01-31 14:57:00,
2013-01-31 10:02:00,37.0,20.6,28.97,West,270,30.0,30.0,51,0.00,,,0.00,VWS V14.01,2013-01-31 15:02:00,
2013-01-31 10:07:00,36.3,20.8,28.97,West,270,19.9,19.9,53,0.00,,,0.00,VWS V14.01,2013-01-31 15:07:00,
2013-01-31 10:12:00,35.4,21.7,28.97,West,270,14.5,14.5,57,0.00,,,0.00,VWS V14.01,2013-01-31 15:12:00,
2013-01-31 10:17:00,35.1,23.4,28.97,West,270,11.4,11.4,62,0.00,,,0.00,VWS V14.01,2013-01-31 15:17:00,
2013-01-31 10:22:00,35.1,21.4,28.97,WNW,292,12.8,12.8,57,0.00,,,0.00,VWS V14.01,2013-01-31 15:22:00,
2013-01-31 10:27:00,34.9,20.4,28.97,NW,315,17.7,17.7,55,0.00,,,0.00,VWS V14.01,2013-01-31 15:27:00,
2013-01-31 10:33:00,34.9,18.6,29.00,NW,315,20.4,20.4,51,0.00,,,0.00,VWS V14.01,2013-01-31 15:33:00,
2013-01-31 10:38:00,35.1,19.2,29.00,West,270,17.0,17.0,52,0.00,,,0.00,VWS V14.01,2013-01-31 15:38:00,
2013-01-31 10:43:00,35.1,19.2,29.00,WNW,292,11.4,11.4,52,0.00,,,0.00,VWS V14.01,2013-01-31 15:43:00,
2013-01-31 10:48:00,35.4,20.0,29.00,West,270,10.7,10.7,53,0.00,,,0.00,VWS V14.01,2013-01-31 15:48:00,
2013-01-31 10:53:00,35.6,20.2,29.00,West,270,12.8,12.8,53,0.00,,,0.00,VWS V14.01,2013-01-31 15:53:00,
2013-01-31 10:58:00,36.0,20.5,29.00,WSW,248,11.2,11.2,53,0.00,,,0.00,VWS V14.01,2013-01-31 15:58:00,
2013-01-31 11:03:00,36.3,19.0,29.03,WNW,292,13.0,13.0,49,0.00,,,0.00,VWS V14.01,2013-01-31 16:03:00,
2013-01-31 11:08:00,36.7,19.3,29.03,West,270,8.5,8.5,49,0.00,,,0.00,VWS V14.01,2013-01-31 16:08:00,
2013-01-31 11:13:00,36.7,16.8,29.03,WNW,292,17.9,17.9,44,0.00,,,0.00,VWS V14.01,2013-01-31 16:13:00,
2013-01-31 11:18:00,36.5,16.1,29.03,West,270,17.5,17.5,43,0.00,,,0.00,VWS V14.01,2013-01-31 16:18:00,
2013-01-31 11:23:00,36.7,16.3,29.03,NW,315,17.5,17.5,43,0.00,,,0.00,VWS V14.01,2013-01-31 16:23:00,
2013-01-31 11:28:00,36.9,18.0,29.03,NNW,338,9.6,9.6,46,0.00,,,0.00,VWS V14.01,2013-01-31 16:28:00,
2013-01-31 11:33:00,36.9,19.0,29.03,WNW,292,7.8,7.8,48,0.00,,,0.00,VWS V14.01,2013-01-31 16:33:00,
2013-01-31 11:38:00,36.9,18.5,29.03,WSW,248,13.0,13.0,47,0.00,,,0.00,VWS V14.01,2013-01-31 16:38:00,
2013-01-31 11:44:00,36.9,18.0,29.03,WNW,292,9.4,9.4,46,0.00,,,0.00,VWS V14.01,2013-01-31 16:44:00,
2013-01-31 11:49:00,37.0,18.2,29.03,WNW,292,11.0,11.0,46,0.00,,,0.00,VWS V14.01,2013-01-31 16:49:00,
2013-01-31 11:54:00,36.9,17.5,29.03,WNW,292,11.0,11.0,45,0.00,,,0.00,VWS V14.01,2013-01-31 16:54:00,
2013-01-31 11:59:00,36.5,16.7,29.03,West,270,24.6,24.6,44,0.00,,,0.00,VWS V14.01,2013-01-31 16:59:00,
2013-01-31 12:04:00,36.1,16.4,29.03,SW,225,17.7,17.7,44,0.00,,,0.00,VWS V14.01,2013-01-31 17:04:00,
2013-01-31 12:09:00,36.1,16.4,29.03,WNW,292,20.4,20.4,44,0.00,,,0.00,VWS V14.01,2013-01-31 17:09:00,
2013-01-31 12:14:00,36.7,16.3,29.03,WSW,248,15.2,15.2,43,0.00,,,0.00,VWS V14.01,2013-01-31 17:14:00,
2013-01-31 12:19:00,36.9,16.5,29.06,West,270,22.4,22.4,43,0.00,,,0.00,VWS V14.01,2013-01-31 17:19:00,
2013-01-31 12:24:00,36.5,14.5,29.06,WNW,292,20.6,20.6,40,0.00,,,0.00,VWS V14.01,2013-01-31 17:24:00,
2013-01-31 12:29:00,36.3,14.3,29.06,WNW,292,25.3,25.3,40,0.00,,,0.00,VWS V14.01,2013-01-31 17:29:00,
2013-01-31 12:34:00,36.9,15.9,29.03,West,270,12.5,12.5,42,0.00,,,0.00,VWS V14.01,2013-01-31 17:34:00,
2013-01-31 12:39:00,36.9,15.9,29.03,WSW,248,20.4,20.4,42,0.00,,,0.00,VWS V14.01,2013-01-31 17:39:00,
2013-01-31 12:44:00,36.1,15.3,29.03,WSW,248,12.3,12.3,42,0.00,,,0.00,VWS V14.01,2013-01-31 17:44:00,
2013-01-31 12:49:00,35.4,14.6,29.03,WSW,248,15.2,15.2,42,0.00,,,0.00,VWS V14.01,2013-01-31 17:49:00,
2013-01-31 12:54:00,35.2,15.0,29.03,West,270,12.3,12.3,43,0.00,,,0.00,VWS V14.01,2013-01-31 17:54:00,
2013-01-31 12:59:00,35.4,15.2,29.03,West,270,19.7,19.7,43,0.00,,,0.00,VWS V14.01,2013-01-31 17:59:00,
2013-01-31 13:04:00,35.4,14.6,29.03,West,270,16.8,16.8,42,0.00,,,0.00,VWS V14.01,2013-01-31 18:04:00,
2013-01-31 13:09:00,35.2,14.5,29.03,WNW,292,23.9,23.9,42,0.00,,,0.00,VWS V14.01,2013-01-31 18:09:00,
2013-01-31 13:14:00,35.4,15.2,29.03,WSW,248,11.4,11.4,43,0.00,,,0.00,VWS V14.01,2013-01-31 18:14:00,
2013-01-31 13:19:00,34.9,15.2,29.06,WNW,292,10.3,10.3,44,0.00,,,0.00,VWS V14.01,2013-01-31 18:19:00,
2013-01-31 13:24:00,34.5,14.9,29.06,West,270,19.5,19.5,44,0.00,,,0.00,VWS V14.01,2013-01-31 18:24:00,
2013-01-31 13:29:00,34.7,15.6,29.06,West,270,13.9,13.9,45,0.00,,,0.00,VWS V14.01,2013-01-31 18:29:00,
2013-01-31 13:34:00,34.9,15.2,29.06,WSW,248,22.8,22.8,44,0.00,,,0.00,VWS V14.01,2013-01-31 18:34:00,
2013-01-31 13:39:00,35.4,15.7,29.06,West,270,22.8,22.8,44,0.00,,,0.00,VWS V14.01,2013-01-31 18:39:00,
2013-01-31 13:45:00,35.4,15.2,29.06,WNW,292,12.1,12.1,43,0.00,,,0.00,VWS V14.01,2013-01-31 18:45:00,
2013-01-31 13:50:00,35.4,14.6,29.09,West,270,17.5,17.5,42,0.00,,,0.00,VWS V14.01,2013-01-31 18:50:00,
2013-01-31 13:55:00,34.9,13.6,29.09,West,270,21.9,21.9,41,0.00,,,0.00,VWS V14.01,2013-01-31 18:55:00,
2013-01-31 14:00:00,34.3,13.6,29.09,West,270,24.4,24.4,42,0.00,,,0.00,VWS V14.01,2013-01-31 19:00:00,
2013-01-31 14:05:00,34.0,13.3,29.09,WNW,292,19.9,19.9,42,0.00,,,0.00,VWS V14.01,2013-01-31 19:05:00,
2013-01-31 14:10:00,33.6,13.5,29.09,West,270,14.8,14.8,43,0.00,,,0.00,VWS V14.01,2013-01-31 19:10:00,
2013-01-31 14:15:00,33.6,14.6,29.09,WNW,292,8.1,8.1,45,0.00,,,0.00,VWS V14.01,2013-01-31 19:15:00,
2013-01-31 14:20:00,33.1,13.6,29.09,WNW,292,21.9,21.9,44,0.00,,,0.00,VWS V14.01,2013-01-31 19:20:00,
2013-01-31 14:25:00,32.7,13.2,29.09,WSW,248,18.6,18.6,44,0.00,,,0.00,VWS V14.01,2013-01-31 19:25:00,
2013-01-31 14:30:00,32.5,12.5,29.09,West,270,19.9,19.9,43,0.00,,,0.00,VWS V14.01,2013-01-31 19:30:00,
2013-01-31 14:35:00,32.7,12.7,29.09,WNW,292,13.2,13.2,43,0.00,,,0.00,VWS V14.01,2013-01-31 19:35:00,
2013-01-31 14:40:00,32.7,12.2,29.09,West,270,15.4,15.4,42,0.00,,,0.00,VWS V14.01,2013-01-31 19:40:00,
2013-01-31 14:45:00,32.7,12.2,29.09,WNW,292,9.8,9.8,42,0.00,,,0.00,VWS V14.01,2013-01-31 19:45:00,
2013-01-31 14:50:00,32.7,12.2,29.09,WSW,248,10.3,10.3,42,0.00,,,0.00,VWS V14.01,2013-01-31 19:50:00,
2013-01-31 14:55:00,32.9,13.4,29.09,WNW,292,6.3,6.3,44,0.00,,,0.00,VWS V14.01,2013-01-31 19:55:00,
2013-01-31 15:00:00,33.1,13.0,29.09,WNW,292,12.8,12.8,43,0.00,,,0.00,VWS V14.01,2013-01-31 20:00:00,
2013-01-31 15:06:00,32.9,12.9,29.12,West,270,17.7,17.7,43,0.00,,,0.00,VWS V14.01,2013-01-31 20:06:00,
2013-01-31 15:11:00,32.9,12.9,29.12,SW,225,12.8,12.8,43,0.00,,,0.00,VWS V14.01,2013-01-31 20:11:00,
2013-01-31 15:16:00,32.7,12.2,29.12,West,270,11.0,11.0,42,0.00,,,0.00,VWS V14.01,2013-01-31 20:16:00,
2013-01-31 15:21:00,32.5,12.5,29.12,WSW,248,12.1,12.1,43,0.00,,,0.00,VWS V14.01,2013-01-31 20:21:00,
2013-01-31 15:26:00,32.4,12.4,29.12,West,270,10.3,10.3,43,0.00,,,0.00,VWS V14.01,2013-01-31 20:26:00,
2013-01-31 15:31:00,32.4,12.4,29.12,West,270,12.8,12.8,43,0.00,,,0.00,VWS V14.01,2013-01-31 20:31:00,
2013-01-31 15:36:00,32.4,12.9,29.12,WNW,292,12.8,12.8,44,0.00,,,0.00,VWS V14.01,2013-01-31 20:36:00,
2013-01-31 15:41:00,32.2,13.2,29.12,West,270,14.5,14.5,45,0.00,,,0.00,VWS V14.01,2013-01-31 20:41:00,
2013-01-31 15:46:00,31.6,14.7,29.14,WSW,248,16.3,16.3,49,0.00,,,0.00,VWS V14.01,2013-01-31 20:46:00,
2013-01-31 15:51:00,31.3,15.3,29.14,SSW,202,12.5,12.5,51,0.00,,,0.00,VWS V14.01,2013-01-31 20:51:00,
2013-01-31 15:56:00,31.5,15.4,29.14,West,270,8.7,8.7,51,0.00,,,0.00,VWS V14.01,2013-01-31 20:56:00,
2013-01-31 16:01:00,31.3,15.3,29.14,West,270,16.3,16.3,51,0.00,,,0.00,VWS V14.01,2013-01-31 21:01:00,
2013-01-31 16:06:00,31.3,16.1,29.14,West,270,12.5,12.5,53,0.00,,,0.00,VWS V14.01,2013-01-31 21:06:00,
2013-01-31 16:11:00,31.1,15.5,29.14,West,270,10.3,10.3,52,0.00,,,0.00,VWS V14.01,2013-01-31 21:11:00,
2013-01-31 16:16:00,31.3,15.7,29.14,NW,315,10.5,10.5,52,0.00,,,0.00,VWS V14.01,2013-01-31 21:16:00,
2013-01-31 16:21:00,31.5,15.9,29.14,WNW,292,9.8,9.8,52,0.00,,,0.00,VWS V14.01,2013-01-31 21:21:00,
2013-01-31 16:26:00,31.3,14.8,29.14,WSW,248,17.5,17.5,50,0.00,,,0.00,VWS V14.01,2013-01-31 21:26:00,
2013-01-31 16:31:00,31.3,14.8,29.14,WSW,248,10.1,10.1,50,0.00,,,0.00,VWS V14.01,2013-01-31 21:31:00,
2013-01-31 16:37:00,31.3,14.8,29.14,WSW,248,23.9,23.9,50,0.00,,,0.00,VWS V14.01,2013-01-31 21:37:00,
2013-01-31 16:42:00,30.9,15.8,29.14,West,270,22.8,22.8,53,0.00,,,0.00,VWS V14.01,2013-01-31 21:42:00,
2013-01-31 16:47:00,30.4,15.3,29.12,WNW,292,17.7,17.7,53,0.00,,,0.00,VWS V14.01,2013-01-31 21:47:00,
2013-01-31 16:52:00,30.2,15.6,29.12,WSW,248,12.3,12.3,54,0.00,,,0.00,VWS V14.01,2013-01-31 21:52:00,
2013-01-31 16:57:00,30.0,15.0,29.12,WSW,248,22.2,22.2,53,0.00,,,0.00,VWS V14.01,2013-01-31 21:57:00,
2013-01-31 17:02:00,29.7,15.9,29.14,West,270,9.8,9.8,56,0.00,,,0.00,VWS V14.01,2013-01-31 22:02:00,
2013-01-31 17:07:00,29.1,16.6,29.14,West,270,17.9,17.9,59,0.00,,,0.00,VWS V14.01,2013-01-31 22:07:00,
2013-01-31 17:12:00,28.8,17.4,29.14,WSW,248,17.0,17.0,62,0.00,,,0.00,VWS V14.01,2013-01-31 22:12:00,
2013-01-31 17:17:00,28.6,14.5,29.17,West,270,26.6,26.6,55,0.00,,,0.00,VWS V14.01,2013-01-31 22:17:00,
2013-01-31 17:22:00,28.8,13.4,29.17,WNW,292,22.4,22.4,52,0.00,,,0.00,VWS V14.01,2013-01-31 22:22:00,
2013-01-31 17:27:00,28.8,13.4,29.17,West,270,15.4,15.4,52,0.00,,,0.00,VWS V14.01,2013-01-31 22:27:00,
2013-01-31 17:33:00,28.6,12.3,29.20,West,270,27.1,27.1,50,0.00,,,0.00,VWS V14.01,2013-01-31 22:33:00,
2013-01-31 17:38:00,28.6,11.9,29.20,WNW,292,21.3,21.3,49,0.00,,,0.00,VWS V14.01,2013-01-31 22:38:00,
2013-01-31 17:43:00,28.6,11.4,29.20,WSW,248,13.2,13.2,48,0.00,,,0.00,VWS V14.01,2013-01-31 22:43:00,
2013-01-31 17:48:00,28.4,10.3,29.20,NNW,338,10.5,10.5,46,0.00,,,0.00,VWS V14.01,2013-01-31 22:48:00,
2013-01-31 17:53:00,28.6,10.4,29.20,West,270,17.0,17.0,46,0.00,,,0.00,VWS V14.01,2013-01-31 22:53:00,
2013-01-31 17:58:00,28.6,9.9,29.20,West,270,10.1,10.1,45,0.00,,,0.00,VWS V14.01,2013-01-31 22:58:00,
2013-01-31 18:03:00,28.6,9.9,29.20,WSW,248,16.1,16.1,45,0.00,,,0.00,VWS V14.01,2013-01-31 23:03:00,
2013-01-31 18:08:00,28.4,9.8,29.20,WSW,248,24.6,24.6,45,0.00,,,0.00,VWS V14.01,2013-01-31 23:08:00,
2013-01-31 18:13:00,28.2,9.1,29.20,WSW,248,15.2,15.2,44,0.00,,,0.00,VWS V14.01,2013-01-31 23:13:00,
2013-01-31 18:19:00,28.0,8.9,29.23,WSW,248,16.3,16.3,44,0.00,,,0.00,VWS V14.01,2013-01-31 23:19:00,
2013-01-31 18:24:00,28.0,9.4,29.23,WSW,248,12.5,12.5,45,0.00,,,0.00,VWS V14.01,2013-01-31 23:24:00,
2013-01-31 18:29:00,27.9,9.3,29.23,West,270,24.4,24.4,45,0.00,,,0.00,VWS V14.01,2013-01-31 23:29:00,
2013-01-31 18:34:00,27.9,9.3,29.26,West,270,19.5,19.5,45,0.00,,,0.00,VWS V14.01,2013-01-31 23:34:00,
2013-01-31 18:39:00,27.9,9.8,29.26,WNW,292,12.8,12.8,46,0.00,,,0.00,VWS V14.01,2013-01-31 23:39:00,
2013-01-31 18:44:00,27.7,10.1,29.26,West,270,15.2,15.2,47,0.00,,,0.00,VWS V14.01,2013-01-31 23:44:00,
2013-01-31 18:49:00,27.7,9.6,29.26,West,270,11.0,11.0,46,0.00,,,0.00,VWS V14.01,2013-01-31 23:49:00,
2013-01-31 18:54:00,27.7,9.6,29.26,WNW,292,10.7,10.7,46,0.00,,,0.00,VWS V14.01,2013-01-31 23:54:00,
2013-01-31 18:59:00,27.7,9.1,29.26,West,270,6.3,6.3,45,0.00,,,0.00,VWS V14.01,2013-01-31 23:59:00,
2013-01-31 19:04:00,27.9,9.3,29.26,West,270,7.6,7.6,45,0.00,,,0.00,VWS V14.01,2013-02-01 00:04:00,
2013-01-31 19:09:00,27.9,8.8,29.26,West,270,13.2,13.2,44,0.00,,,0.00,VWS V14.01,2013-02-01 00:09:00,
2013-01-31 19:15:00,27.9,8.3,29.26,WNW,292,11.4,11.4,43,0.00,,,0.00,VWS V14.01,2013-02-01 00:15:00,
2013-01-31 19:20:00,28.0,8.9,29.26,WNW,292,5.8,5.8,44,0.00,,,0.00,VWS V14.01,2013-02-01 00:20:00,
2013-01-31 19:25:00,28.0,8.9,29.26,West,270,6.7,6.7,44,0.00,,,0.00,VWS V14.01,2013-02-01 00:25:00,
2013-01-31 19:30:00,27.9,8.3,29.26,WNW,292,11.4,11.4,43,0.00,,,0.00,VWS V14.01,2013-02-01 00:30:00,
2013-01-31 19:35:00,27.9,8.3,29.26,WNW,292,13.0,13.0,43,0.00,,,0.00,VWS V14.01,2013-02-01 00:35:00,
2013-01-31 19:40:00,28.0,8.4,29.26,WNW,292,10.5,10.5,43,0.00,,,0.00,VWS V14.01,2013-02-01 00:40:00,
2013-01-31 19:45:00,28.0,8.4,29.26,West,270,22.6,22.6,43,0.00,,,0.00,VWS V14.01,2013-02-01 00:45:00,
2013-01-31 19:50:00,27.9,7.8,29.26,WNW,292,11.0,11.0,42,0.00,,,0.00,VWS V14.01,2013-02-01 00:50:00,
2013-01-31 19:55:00,27.9,8.3,29.26,WNW,292,10.7,10.7,43,0.00,,,0.00,VWS V14.01,2013-02-01 00:55:00,
2013-01-31 20:00:00,27.9,8.8,29.26,WNW,292,13.2,13.2,44,0.00,,,0.00,VWS V14.01,2013-02-01 01:00:00,
2013-01-31 20:05:00,27.7,8.1,29.26,WSW,248,7.6,7.6,43,0.00,,,0.00,VWS V14.01,2013-02-01 01:05:00,
2013-01-31 20:10:00,27.7,8.6,29.26,WSW,248,8.7,8.7,44,0.00,,,0.00,VWS V14.01,2013-02-01 01:10:00,
2013-01-31 20:15:00,27.9,8.8,29.26,West,270,10.1,10.1,44,0.00,,,0.00,VWS V14.01,2013-02-01 01:15:00,
2013-01-31 20:20:00,27.9,8.8,29.26,West,270,7.8,7.8,44,0.00,,,0.00,VWS V14.01,2013-02-01 01:20:00,
2013-01-31 20:25:00,27.9,8.8,29.26,WNW,292,8.5,8.5,44,0.00,,,0.00,VWS V14.01,2013-02-01 01:25:00,
2013-01-31 20:30:00,27.9,8.8,29.26,West,270,7.8,7.8,44,0.00,,,0.00,VWS V14.01,2013-02-01 01:30:00,
2013-01-31 20:36:00,27.9,8.8,29.26,WSW,248,7.4,7.4,44,0.00,,,0.00,VWS V14.01,2013-02-01 01:36:00,
2013-01-31 20:41:00,27.9,8.8,29.26,West,270,13.0,13.0,44,0.00,,,0.00,VWS V14.01,2013-02-01 01:41:00,
2013-01-31 20:46:00,27.9,8.8,29.26,WNW,292,9.8,9.8,44,0.00,,,0.00,VWS V14.01,2013-02-01 01:46:00,
2013-01-31 20:51:00,27.9,8.8,29.26,WSW,248,12.3,12.3,44,0.00,,,0.00,VWS V14.01,2013-02-01 01:51:00,
2013-01-31 20:56:00,27.9,8.8,29.26,WNW,292,8.1,8.1,44,0.00,,,0.00,VWS V14.01,2013-02-01 01:56:00,
2013-01-31 21:01:00,27.7,8.6,29.26,WNW,292,17.7,17.7,44,0.00,,,0.00,VWS V14.01,2013-02-01 02:01:00,
2013-01-31 21:06:00,27.7,8.6,29.26,WSW,248,8.5,8.5,44,0.00,,,0.00,VWS V14.01,2013-02-01 02:06:00,
2013-01-31 21:11:00,27.5,9.0,29.26,WSW,248,12.1,12.1,45,0.00,,,0.00,VWS V14.01,2013-02-01 02:11:00,
2013-01-31 21:16:00,27.3,8.8,29.26,South,180,4.7,4.7,45,0.00,,,0.00,VWS V14.01,2013-02-01 02:16:00,
2013-01-31 21:21:00,27.3,8.8,29.26,West,270,11.2,11.2,45,0.00,,,0.00,VWS V14.01,2013-02-01 02:21:00,
2013-01-31 21:26:00,27.3,8.8,29.26,West,270,9.6,9.6,45,0.00,,,0.00,VWS V14.01,2013-02-01 02:26:00,
2013-01-31 21:31:00,27.1,8.6,29.26,WSW,248,5.8,5.8,45,0.00,,,0.00,VWS V14.01,2013-02-01 02:31:00,
2013-01-31 21:36:00,27.1,8.6,29.26,West,270,8.1,8.1,45,0.00,,,0.00,VWS V14.01,2013-02-01 02:36:00,
2013-01-31 21:41:00,27.1,8.6,29.26,WSW,248,8.1,8.1,45,0.00,,,0.00,VWS V14.01,2013-02-01 02:41:00,
2013-01-31 21:46:00,27.1,8.6,29.23,SW,225,5.8,5.8,45,0.00,,,0.00,VWS V14.01,2013-02-01 02:46:00,
2013-01-31 21:51:00,27.0,8.5,29.23,WSW,248,10.3,10.3,45,0.00,,,0.00,VWS V14.01,2013-02-01 02:51:00,
2013-01-31 21:56:00,27.0,8.5,29.23,NW,315,7.4,7.4,45,0.00,,,0.00,VWS V14.01,2013-02-01 02:56:00,
2013-01-31 22:01:00,27.0,8.5,29.26,West,270,6.0,6.0,45,0.00,,,0.00,VWS V14.01,2013-02-01 03:01:00,
2013-01-31 22:06:00,27.0,8.5,29.26,WSW,248,5.4,5.4,45,0.00,,,0.00,VWS V14.01,2013-02-01 03:06:00,
2013-01-31 22:11:00,27.1,8.6,29.26,West,270,7.2,7.2,45,0.00,,,0.00,VWS V14.01,2013-02-01 03:11:00,
2013-01-31 22:16:00,27.1,8.6,29.26,SW,225,8.1,8.1,45,0.00,,,0.00,VWS V14.01,2013-02-01 03:16:00,
2013-01-31 22:21:00,27.1,9.1,29.26,West,270,12.8,12.8,46,0.00,,,0.00,VWS V14.01,2013-02-01 03:21:00,
2013-01-31 22:26:00,27.1,9.6,29.26,West,270,6.3,6.3,47,0.00,,,0.00,VWS V14.01,2013-02-01 03:26:00,
2013-01-31 22:31:00,27.1,10.5,29.29,West,270,7.8,7.8,49,0.00,,,0.00,VWS V14.01,2013-02-01 03:31:00,
2013-01-31 22:36:00,27.1,11.4,29.29,West,270,5.8,5.8,51,0.00,,,0.00,VWS V14.01,2013-02-01 03:36:00,
2013-01-31 22:41:00,27.0,11.7,29.29,WNW,292,3.1,3.1,52,0.00,,,0.00,VWS V14.01,2013-02-01 03:41:00,
2013-01-31 22:46:00,26.6,11.8,29.29,WSW,248,12.1,12.1,53,0.00,,,0.00,VWS V14.01,2013-02-01 03:46:00,
2013-01-31 22:52:00,26.4,12.5,29.29,WSW,248,7.6,7.6,55,0.00,,,0.00,VWS V14.01,2013-02-01 03:52:00,
2013-01-31 22:57:00,26.4,12.0,29.29,WSW,248,4.0,4.0,54,0.00,,,0.00,VWS V14.01,2013-02-01 03:57:00,
2013-01-31 23:02:00,26.4,12.5,29.26,WSW,248,3.1,3.1,55,0.00,,,0.00,VWS V14.01,2013-02-01 04:02:00,
2013-01-31 23:07:00,26.4,12.5,29.26,WSW,248,8.5,8.5,55,0.00,,,0.00,VWS V14.01,2013-02-01 04:07:00,
2013-01-31 23:12:00,26.6,12.2,29.26,WSW,248,8.5,8.5,54,0.00,,,0.00,VWS V14.01,2013-02-01 04:12:00,
2013-01-31 23:17:00,26.8,12.4,29.29,SW,225,8.7,8.7,54,0.00,,,0.00,VWS V14.01,2013-02-01 04:17:00,
2013-01-31 23:22:00,27.0,12.6,29.29,West,270,6.5,6.5,54,0.00,,,0.00,VWS V14.01,2013-02-01 04:22:00,
2013-01-31 23:27:00,27.0,12.6,29.29,WNW,292,6.5,6.5,54,0.00,,,0.00,VWS V14.01,2013-02-01 04:27:00,
2013-01-31 23:32:00,27.1,12.7,29.26,WNW,292,3.1,3.1,54,0.00,,,0.00,VWS V14.01,2013-02-01 04:32:00,
2013-01-31 23:37:00,27.3,12.9,29.26,WNW,292,3.8,3.8,54,0.00,,,0.00,VWS V14.01,2013-02-01 04:37:00,
2013-01-31 23:42:00,27.5,13.5,29.26,West,270,3.1,3.1,55,0.00,,,0.00,VWS V14.01,2013-02-01 04:42:00,
2013-01-31 23:47:00,27.1,14.3,29.29,NW,315,5.6,5.6,58,0.00,,,0.00,VWS V14.01,2013-02-01 04:47:00,
2013-01-31 23:52:00,27.1,14.7,29.29,WNW,292,4.7,4.7,59,0.00,,,0.00,VWS V14.01,2013-02-01 04:52:00,
2013-01-31 23:57:00,26.8,15.9,29.29,NNW,338,4.0,4.0,63,0.00,,,0.00,VWS V14.01,2013-02-01 04:57:00,